Regional Weather Roundup
Issued by NWS

Home | Current Version | Previous Version | Text Only | Print | Product List | Glossary On
Versions: 1 2 3 4 5 6 7 8 9 10 11 12 13 14 15 16 17 18 19 20 21 22 23 24 25 26 27 28 29 30 31 32 33 34 35 36 37 38 39 40 41 42 43 44 45 46 47 48 49 50
000
ASUS43 KFSD 150410
RWRSD

WEATHER ROUNDUP FOR SOUTH DAKOTA
NATIONAL WEATHER SERVICE SIOUX FALLS SD
1100 PM CDT SUN SEP 14 2014

NOTE: "FAIR" INDICATES FEW OR NO CLOUDS BELOW 12,000 FEET WITH NO
SIGNIFICANT WEATHER AND/OR OBSTRUCTIONS TO VISIBILITY.


SDZ001>005-009-010-012>017-150500-
NORTHWEST AND NORTH CENTRAL SOUTH DAKOTA

CITY           SKY/WX    TMP DP  RH WIND       PRES   REMARKS
BUFFALO          N/A     48  38  68 E7        30.14R
FAITH            N/A     50  44  80 CALM      30.20R
MOBRIDGE       CLOUDY    48  43  82 N3        30.17R
$$

SDZ012>016-024>037-041>051-057-063-072>074-150500-
SOUTHWEST AND SOUTH CENTRAL SOUTH DAKOTA

CITY           SKY/WX    TMP DP  RH WIND       PRES   REMARKS
RAPID CTY ARPT PTCLDY    43  37  79 CALM      30.21R
PIERRE         CLOUDY    51  42  71 N5        30.16R
CUSTER         CLEAR     36  34  92 CALM      30.22R
ELLSWORTH AFB  CLOUDY    44  39  82 W2        30.21R
PHILIP         CLOUDY    49  42  77 CALM      30.19R
PINE RIDGE     PTCLDY    40  37  89 CALM      30.18R
WINNER         CLOUDY    52  42  69 NE7       30.14S
$$

SDZ004>011-016>023-039-040-150500-
NORTHEAST SOUTH DAKOTA

CITY           SKY/WX    TMP DP  RH WIND       PRES   REMARKS
ABERDEEN       CLOUDY    46  44  93 S3        30.17R
WATERTOWN      CLOUDY    48  43  82 CALM      30.16S
SISSETON         N/A     45  42  89 N3        30.16R
$$

SDZ017-020-022-023-036>040-048>070-150500-
SOUTHEAST SOUTH DAKOTA

CITY           SKY/WX    TMP DP  RH WIND       PRES   REMARKS
SIOUX FALLS    LGT RAIN  51  45  79 N5        30.15R
HURON          CLOUDY    49  47  93 N3        30.15S
CHAMBERLAIN    CLOUDY    51  43  74 NE6       30.15R
MITCHELL       CLOUDY    51  46  83 E5        30.15S
YANKTON        CLOUDY    55  46  71 NE13      30.11S
$$

ABBREVIATIONS USED IN REMARKS
   TC - TEMPERATURE IN CELSIUS
  WCI - WIND CHILL INDEX
   HX - HEAT INDEX
  VSB - VISIBILITY



USA.gov is the U.S. government's official web portal to all federal, state and local government web resources and services.